GW5910 Weather Reports


Display with metric or nautical units.
time (UTC)temp
F
wind
direction
speed
MPH
gust
MPH
rain 1hr
in
rain 24hr
in
rain mn
in
humidity
%
barometer
mb
20260503184757 64 207 2.0 3.0 0.00 0.00 0.00 39 1017.0
20260503184256 64 276 2.0 6.0 0.00 0.00 0.00 40 1017.0
20260503183756 63 152 2.0 6.0 0.00 0.00 0.00 42 1017.0
20260503183257 63 182 2.0 4.0 0.00 0.00 0.00 38 1017.0
20260503182756 63 171 2.0 3.0 0.00 0.00 0.00 41 1017.0
20260503182256 63 156 2.0 4.0 0.00 0.00 0.00 41 1017.0
20260503181756 62 183 2.0 3.0 0.00 0.00 0.00 41 1017.0
20260503181256 62 228 2.0 4.0 0.00 0.00 0.00 39 1017.0
20260503180757 62 178 1.0 3.0 0.00 0.00 0.00 40 1017.0
20260503180256 62 148 1.0 2.0 0.00 0.00 0.00 40 1017.0
20260503175756 62 181 2.0 4.0 0.00 0.00 0.00 40 1018.0
20260503175256 63 166 2.0 4.0 0.00 0.00 0.00 40 1018.0
20260503174757 63 176 2.0 3.0 0.00 0.00 0.00 39 1018.0
20260503174256 62 196 1.0 3.0 0.00 0.00 0.00 39 1018.0
20260503173756 62 153 2.0 4.0 0.00 0.00 0.00 40 1018.0
20260503173256 62 229 2.0 2.0 0.00 0.00 0.00 40 1018.0
20260503172756 62 194 1.0 3.0 0.00 0.00 0.00 39 1018.0
20260503172256 62 201 2.0 3.0 0.00 0.00 0.00 41 1018.0
20260503171756 62 171 2.0 5.0 0.00 0.00 0.00 39 1018.0
20260503171257 62 250 3.0 7.0 0.00 0.00 0.00 39 1018.0
20260503170756 62 166 2.0 3.0 0.00 0.00 0.00 40 1018.0
20260503170257 62 191 3.0 4.0 0.00 0.00 0.00 38 1018.0
20260503150756 59 267 0.0 1.0 0.00 0.00 0.00 46 1020.0
20260503150256 59 261 1.0 4.0 0.00 0.00 0.00 45 1020.0
20260503140256 55 156 1.0 3.0 0.00 0.00 0.00 55 1020.0
20260503131256 46 175 0.0 1.0 0.00 0.00 0.00 73 1020.0
20260503130756 44 186 1.0 2.0 0.00 0.00 0.00 74 1020.0
20260503130256 44 253 1.0 2.0 0.00 0.00 0.00 74 1020.0
20260503110756 35 245 0.0 1.0 0.00 0.00 0.00 91 1019.0
20260503110257 35 231 0.0 1.0 0.00 0.00 0.00 92 1019.0
20260503100256 34 309 0.0 2.0 0.00 0.00 0.00 94 1018.0
20260503090256 33 353 0.0 1.0 0.00 0.00 0.00 97 1018.0
20260503081256 34 287 0.0 1.0 0.00 0.00 0.00 94 1018.0
20260503080756 34 341 0.0 1.0 0.00 0.00 0.00 94 1018.0
20260503080257 34 0 0.0 0.0 0.00 0.00 0.00 93 1018.0
20260503072756 35 328 0.0 1.0 0.00 0.00 0.00 90 1018.0
20260503072301 35 62 0.0 0.0 0.00 0.00 0.00 90 1018.0
20260503071756 35 38 0.0 1.0 0.00 0.00 0.00 89 1018.0
20260503071256 35 0 0.0 0.0 0.00 0.00 0.00 88 1018.0
20260503070756 35 342 0.0 1.0 0.00 0.00 0.00 88 1018.0
20260503070256 35 329 0.0 1.0 0.00 0.00 0.00 90 1018.0
20260503060256 36 6 0.0 0.0 0.00 0.00 0.00 89 1019.0
20260503054756 36 20 0.0 1.0 0.00 0.00 0.00 92 1019.0
20260503054256 36 297 0.0 1.0 0.00 0.00 0.00 92 1019.0
20260503053757 36 0 0.0 0.0 0.00 0.00 0.00 92 1019.0
20260503053256 36 288 0.0 1.0 0.00 0.00 0.00 91 1019.0
20260503052756 36 27 0.0 1.0 0.00 0.00 0.00 90 1019.0
20260503052256 36 301 0.0 1.0 0.00 0.00 0.00 90 1019.0
20260503051756 36 255 0.0 1.0 0.00 0.00 0.00 91 1019.0
20260503051257 36 331 0.0 1.0 0.00 0.00 0.00 90 1019.0
20260503050756 36 0 0.0 0.0 0.00 0.00 0.00 91 1019.0
20260503050256 37 0 0.0 0.0 0.00 0.00 0.00 91 1019.0
20260503045756 37 234 0.0 0.0 0.00 0.00 0.00 90 1019.0
20260503045256 37 337 0.0 1.0 0.00 0.00 0.00 92 1019.0
20260503044756 37 0 0.0 0.0 0.00 0.00 0.00 89 1019.0
20260503044256 37 19 0.0 0.0 0.00 0.00 0.00 90 1019.0
20260503043756 37 276 0.0 1.0 0.00 0.00 0.00 89 1019.0
20260503043256 36 0 0.0 0.0 0.00 0.00 0.00 89 1019.0
20260503042756 36 278 0.0 1.0 0.00 0.00 0.00 92 1019.0
20260503042256 37 0 0.0 0.0 0.00 0.00 0.00 92 1019.0
20260503041756 37 0 0.0 0.0 0.00 0.00 0.00 91 1019.0
20260503041256 37 0 0.0 0.0 0.00 0.00 0.00 90 1019.0
20260503040756 37 143 0.0 0.0 0.00 0.00 0.00 89 1019.0
20260503040256 37 269 0.0 1.0 0.00 0.00 0.00 89 1019.0
20260503035757 37 219 0.0 0.0 0.00 0.00 0.00 86 1019.0
20260503035256 37 0 0.0 0.0 0.00 0.00 0.00 87 1019.0
20260503034756 38 304 0.0 0.0 0.00 0.00 0.00 88 1019.0
20260503034256 38 257 0.0 0.0 0.00 0.00 0.00 87 1019.0
20260503033756 38 217 0.0 0.0 0.00 0.00 0.00 85 1019.0
20260503033257 38 290 0.0 1.0 0.00 0.00 0.00 84 1019.0
20260503032756 38 67 0.0 1.0 0.00 0.00 0.00 85 1019.0
20260503032258 38 0 0.0 0.0 0.00 0.00 0.00 85 1019.0
20260503031756 38 0 0.0 0.0 0.00 0.00 0.00 87 1019.0
20260503031256 38 71 0.0 1.0 0.00 0.00 0.00 86 1019.0
20260503030756 38 145 0.0 1.0 0.00 0.00 0.00 86 1019.0
20260503030257 38 0 0.0 0.0 0.00 0.00 0.00 86 1019.0
20260503025756 38 321 0.0 1.0 0.00 0.00 0.00 87 1019.0
20260503025256 38 0 0.0 0.0 0.00 0.00 0.00 86 1019.0
20260503024757 38 0 0.0 0.0 0.00 0.00 0.00 87 1019.0
20260503024256 38 126 0.0 1.0 0.00 0.00 0.00 86 1019.0
20260503023756 39 169 0.0 0.0 0.00 0.00 0.00 85 1019.0
20260503023256 39 88 0.0 0.0 0.00 0.00 0.00 84 1019.0
20260503022756 39 91 0.0 1.0 0.00 0.00 0.00 83 1019.0
20260503022257 39 0 0.0 0.0 0.00 0.00 0.00 82 1019.0
20260503021756 40 70 0.0 1.0 0.00 0.00 0.00 83 1019.0
20260503021256 40 24 0.0 0.0 0.00 0.00 0.00 81 1019.0
20260503020756 40 36 0.0 1.0 0.00 0.00 0.00 80 1018.0
20260503020256 40 0 0.0 0.0 0.00 0.00 0.00 78 1018.0
20260503015756 40 15 0.0 1.0 0.00 0.00 0.00 78 1018.0
20260503015256 41 0 0.0 0.0 0.00 0.00 0.00 77 1018.0
20260503014757 41 47 0.0 1.0 0.00 0.00 0.00 75 1018.0
20260503014256 41 0 0.0 0.0 0.00 0.00 0.00 75 1018.0
20260503013756 42 0 0.0 0.0 0.00 0.00 0.00 74 1018.0
20260503013256 42 0 0.0 0.0 0.00 0.00 0.00 75 1018.0
20260503012756 42 15 0.0 0.0 0.00 0.00 0.00 71 1018.0
20260503012257 43 0 0.0 0.0 0.00 0.00 0.00 70 1018.0
20260503011757 44 0 0.0 0.0 0.00 0.00 0.00 70 1018.0
20260503011256 44 0 0.0 0.0 0.00 0.00 0.00 67 1018.0
20260503010756 44 80 0.0 1.0 0.00 0.00 0.00 66 1018.0
20260503010256 45 92 0.0 0.0 0.00 0.00 0.00 66 1018.0
20260503005756 46 0 0.0 0.0 0.00 0.00 0.00 64 1018.0
20260503005256 46 117 0.0 2.0 0.00 0.00 0.00 62 1018.0
20260503004758 46 102 0.0 0.0 0.00 0.00 0.00 60 1018.0
20260503004256 47 348 0.0 2.0 0.00 0.00 0.00 57 1018.0
20260503003756 47 332 0.0 1.0 0.00 0.00 0.00 59 1018.0
20260503003256 47 3 0.0 1.0 0.00 0.00 0.00 57 1018.0
20260503002756 48 38 0.0 1.0 0.00 0.00 0.00 57 1018.0
20260503002257 48 0 0.0 0.0 0.00 0.00 0.00 55 1018.0
20260503001757 48 167 1.0 3.0 0.00 0.00 0.00 54 1018.0
20260503001256 49 330 2.0 2.0 0.00 0.00 0.00 52 1018.0
20260503000756 49 241 0.0 1.0 0.00 0.00 0.00 55 1018.0
20260503000256 49 310 1.0 2.0 0.00 0.00 0.00 54 1018.0
20260502235756 49 319 0.0 1.0 0.00 0.00 0.00 54 1018.0
20260502235256 49 291 1.0 3.0 0.00 0.00 0.00 53 1017.0
20260502234756 50 323 1.0 3.0 0.00 0.00 0.00 53 1017.0
20260502234256 50 301 1.0 3.0 0.00 0.00 0.00 53 1017.0
20260502233756 51 130 1.0 2.0 0.00 0.00 0.00 51 1017.0
20260502233257 52 89 0.0 2.0 0.00 0.00 0.00 50 1017.0
20260502232756 53 323 2.0 3.0 0.00 0.00 0.00 48 1017.0
20260502232256 53 0 3.0 5.0 0.00 0.00 0.00 47 1017.0
20260502231756 52 334 1.0 2.0 0.00 0.00 0.00 49 1017.0
20260502231255 51 315 2.0 4.0 0.00 0.00 0.00 49 1017.0
20260502230756 51 40 2.0 3.0 0.00 0.00 0.00 51 1017.0
20260502230256 51 277 0.0 2.0 0.00 0.00 0.00 51 1017.0
20260502225756 51 238 0.0 2.0 0.00 0.00 0.00 50 1017.0
20260502225256 52 241 1.0 4.0 0.00 0.00 0.00 49 1017.0
20260502224756 52 331 1.0 4.0 0.00 0.00 0.00 49 1017.0
20260502224256 52 279 2.0 4.0 0.00 0.00 0.00 48 1017.0
20260502223756 53 89 0.0 2.0 0.00 0.00 0.00 48 1017.0
20260502223256 53 257 2.0 4.0 0.00 0.00 0.00 46 1017.0
20260502222756 54 351 1.0 4.0 0.00 0.00 0.00 48 1017.0
20260502222256 55 42 2.0 4.0 0.00 0.00 0.00 46 1017.0
20260502221756 54 187 2.0 3.0 0.00 0.00 0.00 46 1017.0
20260502221256 53 284 2.0 4.0 0.00 0.00 0.00 47 1017.0
20260502220756 53 278 2.0 4.0 0.00 0.00 0.00 48 1017.0
20260502220256 53 319 2.0 4.0 0.00 0.00 0.00 47 1017.0
20260502215756 53 321 0.0 2.0 0.00 0.00 0.00 48 1017.0
20260502215256 54 254 4.0 8.0 0.00 0.00 0.00 44 1017.0
20260502214756 53 283 2.0 3.0 0.00 0.00 0.00 46 1017.0
20260502214256 52 297 1.0 3.0 0.00 0.00 0.00 47 1017.0
20260502213756 53 339 3.0 5.0 0.00 0.00 0.00 46 1017.0
20260502213256 53 182 1.0 2.0 0.00 0.00 0.00 46 1017.0
20260502212756 53 326 2.0 5.0 0.00 0.00 0.00 46 1017.0
20260502212256 54 236 3.0 7.0 0.00 0.00 0.00 45 1017.0
20260502211756 55 305 2.0 5.0 0.00 0.00 0.00 46 1017.0
20260502211259 55 93 1.0 2.0 0.00 0.00 0.00 46 1017.0
20260502210801 54 270 2.0 3.0 0.00 0.00 0.00 45 1017.0
20260502210256 55 270 2.0 4.0 0.00 0.00 0.00 47 1017.0
20260502205756 57 299 1.0 2.0 0.00 0.00 0.00 46 1017.0
20260502205257 57 318 1.0 3.0 0.00 0.00 0.00 43 1017.0
20260502204800 56 275 0.0 1.0 0.00 0.00 0.00 46 1017.0
20260502204256 56 264 3.0 6.0 0.00 0.00 0.00 41 1017.0
20260502203756 55 69 0.0 2.0 0.00 0.00 0.00 46 1017.0
20260502203256 55 238 1.0 3.0 0.00 0.00 0.00 48 1017.0
20260502202756 55 282 2.0 5.0 0.00 0.00 0.00 43 1017.0
20260502202256 55 327 2.0 4.0 0.00 0.00 0.00 45 1017.0
20260502201756 54 255 3.0 5.0 0.00 0.00 0.00 44 1017.0
20260502201256 54 276 3.0 7.0 0.00 0.00 0.00 43 1017.0
20260502200756 54 250 2.0 4.0 0.00 0.00 0.00 46 1017.0
20260502200302 54 234 1.0 3.0 0.00 0.00 0.00 44 1017.0
20260502195756 55 294 2.0 4.0 0.00 0.00 0.00 45 1017.0
20260502195256 55 285 3.0 5.0 0.00 0.00 0.00 44 1017.0
20260502194756 55 88 2.0 3.0 0.00 0.00 0.00 44 1017.0
20260502194256 55 256 1.0 5.0 0.00 0.00 0.00 48 1017.0
20260502193757 54 271 3.0 5.0 0.00 0.00 0.00 44 1017.0
20260502193256 54 300 4.0 9.0 0.00 0.00 0.00 44 1017.0
20260502192757 54 258 2.0 3.0 0.00 0.00 0.00 46 1017.0
20260502192256 55 279 3.0 7.0 0.00 0.00 0.00 44 1017.0
20260502191756 55 75 2.0 3.0 0.00 0.00 0.00 44 1017.0
20260502191256 56 315 1.0 4.0 0.00 0.00 0.00 43 1017.0
20260502190756 56 272 2.0 4.0 0.00 0.00 0.00 42 1017.0
20260502190257 56 312 2.0 6.0 0.00 0.00 0.00 44 1017.0
20260502185757 56 232 1.0 4.0 0.00 0.00 0.00 42 1017.0
20260502185256 58 240 2.0 4.0 0.00 0.00 0.00 40 1017.0